DELLINGR (RBLE) (43021 NORAD) Tracking and Keplerian Element Data

This shows tracking and keplerian element data for the satellite.

Feedback or suggestion? Click here.




ElementValue
Catalog43021
NameDELLINGR (RBLE)
Epoch Orbit8096
Epoch Day113.88270929
Epoch Year2019
RAAN253.8648
Inclination51.6387
Eccentricity0.0002121
Argument of Perigee253.9236
Mean Anonmoly106.1525
Mean Motion15.62204778
Decay Rate8.731E-05
L11 43021U 98067NJ 19113.88270929 .00008731 00000-0 10310-3 0 9997
L22 43021 51.6387 253.8648 0002121 253.9236 106.1525 15.62204778 80969

Live tracking and technical data element details for DELLINGR (RBLE) (NORAD 43021). DELLINGR (RBLE) can be tracked NOW for your location showing map with azimuth and elevation plus other details from your city location.

Track the satellite on the map from your city or location and see movement details for azimuth, elevation, latitude, longitude, range, height, and movement on the map or in text.







IsCatalogInMostPopularTable: catalog: 43021, numindb: 215
Update: records affected: 1



GetName: 43021 DELLINGR (RBLE)

Hit Count: updated at: Thu, 25 Apr 2019 20:21:52 GMT